ONEWEB-0015

operational
NORAD ID: 61594 Int'l Des: 2024-188 Owner: ONEWEBE Country: UK Constellation: oneweb
LEOCIRCULARPOLARONEWEB_TYPE

ONEWEB-0015について

説明を読み込み中...

リアルタイム位置

3D地球を読み込み中...

次回通過

高度履歴

Altitude vs Time

uPlot chart will show altitude changes over time

軌道要素

1 61594U 24188A 25251.54548096 -.00000418 00000-0 -12165-2 0 9996
2 61594 87.8780 77.2153 0002327 84.8307 275.3086 13.11417692 47540
Epoch: Sep 8, 2025 • Age: 15 hours

現在のステータス

高度 1227.6 km
速度 7.24 km/s
衛星直下点 -25.17°S, 33.46°E
打ち上げ日 Dec 8, 2022
運用期間 2.7 years
タイプ internet

技術仕様

分類 Payload
質量 148.00 kg
乾燥質量 140.00 kg
総質量 148.00 kg
長さ 1.30 m
直径 1.00 m
スパン 5.00 m
形状 Trapezoid+2 pan
製造者 ONEWUS
バスタイプ ARROW
フェーズステータス In Orbit
所有者/国 ONEWEBE/UK

大規模コンステレーション

Loading constellations...